Location: EverStaR Observatory
(38.9036°N, 94.8303°W)
Time: 20:15:48
(UTC-05:00)

Hubble Space Telescope - Pass Details

Date: 26 March 2019
Orbit: 536 x 540 km, 28.5° (Epoch: 17 October)

Event Time Altitude Azimuth Distance (km) Brightness Sun altitude
Rises 21:13:21 0° 238° (WSW) 2,673 4.9 -19.1°
Reaches altitude 10° 21:16:09 10° 219° (SW) 1,784 3.6 -19.6°
Enters shadow 21:18:29 18° 185° (S) 1,358 2.6 -20.1°
